Location: Bemmer
(51.5498°N, 5.6249°E)
Time: 12:19:45
(UTC+00:00)

Cosmos 1933 Rocket - Pass Details

Date: 03 March 2021
Orbit: 607 x 629 km, 82.5° (Epoch: 11 April)

Event Time Altitude Azimuth Distance (km) Brightness Sun altitude
Rises 18:57:21 0° 188° (S) 2,863 7.0 -15.6°
Reaches altitude 10° 18:59:33 10° 189° (S) 1,966 6.1 -16.0°
Maximum altitude 19:03:54 90° 91° (E) 623 3.5 -16.6°
Drops below altitude 10° 19:08:20 10° 11° (N) 1,996 6.2 -17.3°
Sets 19:10:35 0° 11° (N) 2,910 7.0 -17.7°
